Regional Weather Roundup
Issued by NWS Cleveland, OH

Home | Current Version | Previous Version | Text Only | Print | Product List | Glossary Off
Versions: 1 2 3 4 5 6 7 8 9 10 11 12 13 14 15 16 17 18 19 20 21 22 23 24 25 26 27 28 29 30 31 32 33 34 35 36 37 38 39 40 41 42 43 44 45 46 47 48 49 50

000
ASUS41 KCLE 250210
RWRCLE
OHIO REGIONAL WEATHER ROUNDUP
NATIONAL WEATHER SERVICE CLEVELAND, OH
900 PM EST FRI FEB 24 2017

NOTE: "FAIR" INDICATES FEW OR NO CLOUDS BELOW 12,000 FEET WITH NO
SIGNIFICANT WEATHER AND/OR OBSTRUCTIONS TO VISIBILITY.

OHZ001>008-015>018-024>027-034-035-043-044-250300-
   NORTHWEST OHIO

CITY           SKY/WX    TMP DP  RH WIND       PRES   REMARKS
DEFIANCE       CLOUDY    59  54  83 SW9       29.44F THUNDER
FINDLAY        CLOUDY    64  52  64 S21G36    29.45F
TOLEDO EXPRESS CLOUDY    61  53  75 S12       29.44F
TOLEDO EXEC    CLOUDY    62  53  72 S10       29.45F
LIMA           CLOUDY    62  53  72 S17       29.48S
$$

OHZ009>014-019>023-028>033-038-089-250300-
   NORTHEAST OHIO

CITY           SKY/WX    TMP DP  RH WIND       PRES   REMARKS
CLE-HOPKINS    CLOUDY    69  49  48 S9        29.54F
CLE-LAKEFRONT  CLOUDY    71  49  45 S7        29.51F
CUY CO. ARPT   CLOUDY    70  52  52 S12       29.54F
LORAIN-ELYRIA  CLOUDY    64  50  60 W23G30    29.55R
ASHTABULA      CLOUDY    68  48  48 S14       29.55F
AKRON-CANTON   PTCLDY    65  48  54 SE8       29.56F
WOOSTER        PTCLDY    62  49  62 SE8       29.54F
MANSFIELD      CLOUDY    66  51  58 S9        29.53F
YOUNGSTOWN     CLOUDY    64  47  53 SE7       29.58F
$$

OHZ042-051>053-060>062-070>072-077>081-250300-
  SOUTHWEST OHIO

CITY           SKY/WX    TMP DP  RH WIND       PRES   REMARKS
CINC-COVINGTON LGT RAIN  61  57  87 SW9       29.57R
CINC-LUNKEN    TSTM      62  59  90 S14       29.55R
HAMILTON       CLOUDY    61  59  93 CALM      29.55S
DAYTON         LGT RAIN  59  54  83 S12       29.54F
WRIGHT-PAT AFB TSTM      60  60 100 S12       29.53R
DAYTON GENERAL TSTM      60  57  89 S8        29.54S
WILMINGTON     LGT RAIN  68  53  58 S13       29.53F
$$

OHZ036-037-039>041-045>050-054>059-063>069-073>076-082>088-250300-
  CENTRAL AND SOUTHEAST OHIO

CITY           SKY/WX    TMP DP  RH WIND       PRES   REMARKS
COLUMBUS       CLOUDY    70  50  49 SE7       29.52F THUNDER
OSU AIRPORT    TSTM      66  55  67 S16G25    29.53F
BOLTON FIELD   TSTM      66  53  63 SW8       29.54S
RICKENBACK AFB CLOUDY    67  50  54 S8        29.53F
NEWARK         CLOUDY    68  48  48 S6        29.54F
MARION         LGT RAIN  61  55  81 NW8       29.53S
LANCASTER      MOCLDY    69  49  48 S8        29.55F
ZANESVILLE     CLOUDY    61  47  59 SE6       29.57F
NEW PHILLY     NOT AVBL
$$



USA.gov is the U.S. government's official web portal to all federal, state and local government web resources and services.